TimeCST,TemperatureF,Dew PointF,Humidity,Sea Level PressureIn,VisibilityMPH,Wind Direction,Wind SpeedMPH,Gust SpeedMPH,PrecipitationIn,Events,Conditions,WindDirDegrees,DateUTC
12:53 AM,30.9,28.9,92,29.98,9.0,Calm,Calm,-,N/A,,Clear,0,2012-11-19 06:53:00
1:53 AM,28.9,27.0,92,29.97,6.0,Calm,Calm,-,N/A,,Clear,0,2012-11-19 07:53:00
2:53 AM,27.0,25.0,92,29.99,5.0,Calm,Calm,-,N/A,,Clear,0,2012-11-19 08:53:00
3:53 AM,25.0,23.0,92,30.00,7.0,North,4.6,-,N/A,,Clear,10,2012-11-19 09:53:00
4:53 AM,27.0,26.1,96,30.00,7.0,Calm,Calm,-,N/A,,Clear,0,2012-11-19 10:53:00
5:53 AM,30.9,28.0,89,30.01,10.0,NW,4.6,-,N/A,,Clear,310,2012-11-19 11:53:00
6:53 AM,43.0,34.0,71,30.03,10.0,NW,15.0,-,N/A,,Clear,320,2012-11-19 12:53:00
7:53 AM,42.1,34.0,73,30.06,10.0,NW,12.7,-,N/A,,Clear,320,2012-11-19 13:53:00
8:53 AM,46.0,34.0,63,30.10,10.0,WNW,5.8,-,N/A,,Clear,300,2012-11-19 14:53:00
9:53 AM,46.9,34.0,61,30.12,10.0,NW,21.9,-,N/A,,Clear,320,2012-11-19 15:53:00
10:53 AM,52.0,34.0,50,30.13,10.0,NW,15.0,-,N/A,,Clear,320,2012-11-19 16:53:00
11:53 AM,57.0,34.0,42,30.12,10.0,NW,12.7,-,N/A,,Clear,320,2012-11-19 17:53:00
12:53 PM,60.1,33.1,36,30.11,10.0,WNW,12.7,-,N/A,,Clear,290,2012-11-19 18:53:00
1:53 PM,62.1,33.1,34,30.10,10.0,NW,15.0,20.7,N/A,,Clear,320,2012-11-19 19:53:00
2:53 PM,62.1,32.0,32,30.09,10.0,NW,11.5,-,N/A,,Clear,310,2012-11-19 20:53:00
3:53 PM,61.0,32.0,34,30.11,10.0,NW,12.7,-,N/A,,Clear,310,2012-11-19 21:53:00
4:53 PM,54.0,30.0,40,30.14,10.0,WNW,4.6,-,N/A,,Clear,290,2012-11-19 22:53:00
5:53 PM,45.0,28.0,52,30.17,10.0,NW,3.5,-,N/A,,Clear,310,2012-11-19 23:53:00
6:53 PM,43.0,28.0,56,30.18,10.0,WNW,3.5,-,N/A,,Clear,290,2012-11-20 00:53:00
7:53 PM,36.0,26.1,67,30.21,10.0,NNW,3.5,-,N/A,,Clear,330,2012-11-20 01:53:00
8:53 PM,37.0,27.0,67,30.22,10.0,WNW,9.2,-,N/A,,Clear,300,2012-11-20 02:53:00
9:53 PM,35.1,26.1,70,30.21,10.0,Calm,Calm,-,N/A,,Clear,0,2012-11-20 03:53:00
10:53 PM,33.1,25.0,72,30.20,10.0,Calm,Calm,-,N/A,,Clear,0,2012-11-20 04:53:00
11:53 PM,27.0,21.9,81,30.22,10.0,Calm,Calm,-,N/A,,Clear,0,2012-11-20 05:53:00